Flight Track Log - Related Links

Times and Time Zones

All times are in EDT time to prevent confusion due to time zone crossing. See the AXM6180 flight status page for this flight to view local times or setup timezone preferences in your user account.

Time Position Orientation Groundspeed Altitude Reporting Facility
EDT Latitude Longitude Course Direction KTS MPH feet Rate Location/Type
12:03AM 1.4860 110.3510 270° West 130 150  Level FlightAware
12:03AM 1.4810 110.3360 252° West 152 175 800 2,118 Climbing FlightAware
12:03AM 1.4770 110.3300 236° Southwest 152 175 1,200 2,100 Climbing FlightAware
12:03AM 1.4720 110.3260 219° Southwest 152 175 1,500 2,250 Climbing FlightAware
12:04AM 1.4670 110.3240 202° Southwest 157 181 1,800 2,000 Climbing FlightAware
12:04AM 1.4500 110.3370 143° Southeast 163 188 2,700 1,875 Climbing FlightAware
12:04AM 1.4430 110.3500 118° Southeast 174 200 3,300 1,610 Climbing FlightAware
12:05AM 1.4350 110.3660 117° Southeast 199 229 3,800 1,231 Climbing FlightAware
12:05AM 1.4260 110.3820 119° Southeast 228 262 4,100 1,200 Climbing FlightAware
12:05AM 1.4200 110.3990 109° East 250 288 4,500 1,440 Climbing FlightAware
12:05AM 1.4200 110.4090 90° East 259 298 4,700 2,357 Climbing FlightAware
12:06AM 1.4230 110.4340 83° East 271 312 5,600 2,700 Climbing FlightAware
12:06AM 1.4270 110.4590 81° East 278 320 6,500 2,927 Climbing FlightAware
12:06AM 1.4320 110.4840 79° East 279 321 7,600 3,333 Climbing FlightAware
12:07AM 1.4370 110.5150 81° East 278 320 9,000 3,568 Climbing FlightAware
12:07AM 1.4440 110.5320 68° East 276 318 9,800 2,348 Climbing FlightAware
12:08AM 1.4720 110.5650 50° Northeast 306 352 10,800 1,886 Climbing FlightAware
12:08AM 1.5090 110.6080 49° Northeast 333 383 12,000 2,712 Climbing FlightAware
12:09AM 1.5440 110.6480 49° Northeast 323 372 14,100 2,609 Climbing FlightAware
12:09AM 1.5790 110.6880 49° Northeast 346 398 15,000 1,688 Climbing FlightAware
12:10AM 1.6120 110.7260 49° Northeast 358 412 15,900 2,029 Climbing FlightAware
12:11AM 1.6530 110.7730 49° Northeast 362 417 17,300 2,025 Climbing FlightAware
12:11AM 1.7010 110.8280 49° Northeast 373 429 18,600 1,823 Climbing FlightAware
12:12AM 1.7430 110.8760 49° Northeast 381 438 19,700 1,890 Climbing FlightAware
12:12AM 1.7820 110.9250 51° Northeast 382 440 20,900 1,941 Climbing FlightAware
12:13AM 1.8180 110.9700 51° Northeast 387 445 21,900 1,791 Climbing FlightAware
12:14AM 1.8590 111.0210 51° Northeast 390 449 22,900 1,543 Climbing FlightAware
12:14AM 1.8980 111.0700 51° Northeast 399 459 23,700 1,521 Climbing FlightAware
12:15AM 1.9410 111.1240 51° Northeast 402 463 24,700 1,478 Climbing FlightAware
12:15AM 1.9790 111.1710 51° Northeast 407 468 25,400 1,433 Climbing FlightAware
12:16AM 2.0200 111.2230 52° Northeast 411 473 26,300 1,315 Climbing FlightAware
12:17AM 2.0650 111.2790 51° Northeast 417 480 27,000 1,233 Climbing FlightAware
12:17AM 2.1080 111.3340 52° Northeast 422 486 27,800 1,412 Climbing FlightAware
12:18AM 2.1480 111.3830 51° Northeast 422 486 28,600 1,217 Climbing FlightAware
12:18AM 2.1910 111.4380 52° Northeast 427 491 29,200 1,147 Climbing FlightAware
12:19AM 2.2310 111.4880 51° Northeast 427 491 29,900 1,043 Climbing FlightAware
12:19AM 2.2780 111.5470 51° Northeast 434 499 30,400 917 Climbing FlightAware
12:20AM 2.3210 111.6000 51° Northeast 435 501 31,000 1,371 Climbing FlightAware
12:21AM 2.3650 111.6560 52° Northeast 428 493 32,000 1,667 Climbing FlightAware
12:21AM 2.4110 111.7140 52° Northeast 424 488 33,000 1,565 Climbing FlightAware
12:22AM 2.4480 111.7610 52° Northeast 418 481 33,800 1,565 Climbing FlightAware
12:22AM 2.4940 111.8180 51° Northeast 412 474 34,800 1,000 Climbing FlightAware
12:23AM 2.5360 111.8710 52° Northeast 416 479 35,000 152 Climbing FlightAware
12:24AM 2.5820 111.9280 51° Northeast 414 476 35,000  Level FlightAware
12:24AM 2.6220 111.9780 51° Northeast 411 473 35,000  Level FlightAware
12:25AM 2.6580 112.0230 51° Northeast 411 473 35,000  Level FlightAware
12:26AM 2.7200 112.1020 52° Northeast 412 474 35,000  Level FlightAware
12:26AM 2.7600 112.1530 52° Northeast 410 472 35,000  Level FlightAware
12:27AM 2.8000 112.2020 51° Northeast 410 472 35,000  Level FlightAware
12:27AM 2.8520 112.2680 52° Northeast 409 471 35,000  Level FlightAware
12:28AM 2.8900 112.3150 51° Northeast 409 471 35,000  Level FlightAware
12:29AM 2.9260 112.3600 51° Northeast 409 471 35,000  Level FlightAware
12:29AM 2.9630 112.4060 51° Northeast 409 471 35,000  Level FlightAware
12:30AM 3.0000 112.4510 51° Northeast 409 471 35,000  Level FlightAware
12:30AM 3.0360 112.4960 51° Northeast 409 471 35,000  Level FlightAware
12:31AM 3.0730 112.5420 51° Northeast 409 471 35,000  Level FlightAware
12:32AM 3.1070 112.5840 51° Northeast 409 471 35,000  Level FlightAware
12:32AM 3.1440 112.6290 51° Northeast 409 471 35,000  Level FlightAware
12:33AM 3.1800 112.6740 51° Northeast 409 471 35,000  Level FlightAware
12:33AM 3.2160 112.7190 51° Northeast 409 471 35,000  Level FlightAware
12:34AM 3.2530 112.7640 51° Northeast 409 471 35,000  Level FlightAware
12:35AM 3.2890 112.8090 51° Northeast 409 471 35,000  Level FlightAware
12:35AM 3.3270 112.8560 51° Northeast 409 471 35,000  Level FlightAware
12:36AM 3.3630 112.9010 51° Northeast 409 471 35,000  Level FlightAware
12:36AM 3.4000 112.9460 51° Northeast 409 471 35,000  Level FlightAware
12:37AM 3.4360 112.9910 51° Northeast 409 471 35,000  Level FlightAware
12:40AM 3.5781 113.1511 48° Northeast  Level Estimated
12:41AM 3.6338 113.2139 48° Northeast  Level Estimated
12:42AM 3.6895 113.2767 48° Northeast  Level Estimated
12:43AM 3.7452 113.3395 48° Northeast  Level Estimated
12:44AM 3.8010 113.4023 48° Northeast  Level Estimated
12:45AM 3.8567 113.4651 48° Northeast  Level Estimated
12:46AM 3.9123 113.5279 48° Northeast  Level Estimated
12:47AM 3.9680 113.5908 48° Northeast  Level Estimated
12:48AM 4.0237 113.6536 48° Northeast  Level Estimated
12:49AM 4.0794 113.7165 48° Northeast  Level Estimated
12:50AM 4.1351 113.7794 48° Northeast  Level Estimated
12:51AM 4.1908 113.8422 48° Northeast  Level Estimated
12:52AM 4.2464 113.9051 48° Northeast  Level Estimated
12:53AM 4.3021 113.9680 48° Northeast  Level Estimated
12:54AM 4.3218 113.9903 48° Northeast  Level Estimated
12:55AM 4.3218 113.9903 37° Northeast  Level Estimated
12:56AM 4.3218 113.9903 37° Northeast  Level Estimated
12:57AM 4.3218 113.9903 37° Northeast  Level Estimated
12:58AM 4.3218 113.9903 37° Northeast  Level Estimated
12:59AM 4.3218 113.9903 37° Northeast  Level Estimated
01:00AM 4.3218 113.9903 37° Northeast  Level Estimated
01:01AM 4.3218 113.9903 37° Northeast  Level Estimated
01:02AM 4.3218 113.9903 37° Northeast  Level Estimated
01:03AM 4.3218 113.9903 37° Northeast  Level Estimated
01:04AM 4.3218 113.9903 37° Northeast  Level Estimated

Login

Don't have an account? Register now (free) for customized features, flight alerts, and more!